Lake Charles Regional, LA

4:17 AM CDT on April 27, 2018 (GMT -0500)
Lake Charles Regional

Weather History for KLCH - November, 2013

Change the Weather History Date:

Tuesday, November 12, 2013

  Actual Average Record
Temperature  
Mean Temperature 58 °F 62 °F  
Max Temperature 74 °F 73 °F 88 °F (1917)
Min Temperature 41 °F 52 °F 29 °F (1950)
Degree Days  
Heating Degree Days 7 5  
Month to date heating degree days 41 45  
Since 1 July heating degree days 59 81  
Cooling Degree Days 0 2  
Month to date cooling degree days 14 31  
Year to date cooling degree days 2921 2764  
Growing Degree Days 7 (Base 50)    
Moisture  
Dew Point 47 °F    
Average Humidity 70    
Maximum Humidity 93    
Minimum Humidity 46    
Precipitation  
Precipitation 0.00 in 0.14 in 2.00 in (1935)
Month to date precipitation 0.33 1.89  
Year to date precipitation 52.56 50.27  
Snow  
Snow 0.00 in 0.00 in 0.00 in ()
Month to date snowfall 0.0 0.0  
Since 1 July snowfall 0.0 0.0  
Since 1 September snowfall 0.0 0.0  
Snow Depth 0.00 in    
Sea Level Pressure  
Sea Level Pressure 30.38 in    
Wind  
Wind Speed 13 mph (NNE)    
Max Wind Speed 29 mph    
Max Gust Speed 37 mph    
Visibility 10 miles    
Events      
T = Trace of Precipitation, MM = Missing Value Source: NWS Daily Summary

Daily Weather History Graph

Daily Weather History Graph

Search for Another Location

Airport or City:

Astronomy

Nov. 12, 2013 Rise Set
Actual Time 6:35 AM CST 5:17 PM CST
Civil Twilight 6:10 AM CST 5:43 PM CST
Nautical Twilight 5:41 AM CST 6:11 PM CST
Astronomical Twilight 5:13 AM CST 6:40 PM CST
Moon 2:14 PM CST (11/12) 1:47 AM CST (11/12)
Length of Visible Light 11h 32m
Length of Day
10h 41m
Waxing Gibbous, 76% of the Moon is Illuminated
Nov 12
Waxing Gibbous
Nov 17
Full
Nov 25
Last Quarter
Dec 2
New
Dec 9
First Quarter

Hourly Weather History & Observations

Time (CST) Temp. Windchill Dew Point Humidity Pressure Visibility Wind Dir Wind Speed Gust Speed Precip Events Conditions
12:53 AM 53.1 °F - 52.0 °F 96% 30.24 in 10.0 mi Calm Calm - N/A   Clear
1:53 AM 54.0 °F - 51.1 °F 90% 30.23 in 10.0 mi Calm Calm - N/A   Clear
2:53 AM 54.0 °F - 51.1 °F 90% 30.25 in 10.0 mi Calm Calm - N/A   Clear
3:53 AM 54.0 °F - 51.1 °F 90% 30.25 in 10.0 mi NNE 3.5 mph - N/A   Clear
4:53 AM 53.1 °F - 50.0 °F 89% 30.27 in 10.0 mi North 3.5 mph - N/A   Clear
5:53 AM 53.1 °F - 48.9 °F 86% 30.28 in 10.0 mi North 3.5 mph - N/A   Clear
6:53 AM 52.0 °F - 48.0 °F 86% 30.31 in 10.0 mi Calm Calm - N/A   Clear
7:53 AM 57.9 °F - 52.0 °F 81% 30.33 in 10.0 mi NNE 5.8 mph - N/A   Clear
8:53 AM 64.0 °F - 54.0 °F 70% 30.35 in 10.0 mi NNE 10.4 mph - N/A   Clear
9:53 AM 66.9 °F - 52.0 °F 59% 30.35 in 10.0 mi NNE 15.0 mph - N/A   Clear
10:53 AM 70.0 °F - 54.0 °F 57% 30.35 in 10.0 mi NNE 12.7 mph 20.7 mph N/A   Clear
11:53 AM 73.0 °F - 52.0 °F 48% 30.33 in 10.0 mi NNE 17.3 mph - N/A   Clear
12:53 PM 73.0 °F - 53.1 °F 49% 30.32 in 10.0 mi NNE 19.6 mph 28.8 mph N/A   Clear
1:53 PM 66.0 °F - 53.1 °F 63% 30.35 in 10.0 mi North 27.6 mph 34.5 mph N/A   Partly Cloudy
2:19 PM 62.6 °F - 51.8 °F 68% 30.35 in 10.0 mi NNE 18.4 mph 31.1 mph N/A   Mostly Cloudy
2:40 PM 59.0 °F - 51.8 °F 77% 30.35 in 10.0 mi NNE 13.8 mph 26.5 mph N/A   Overcast
2:53 PM 59.0 °F - 51.1 °F 75% 30.38 in 10.0 mi North 20.7 mph 25.3 mph N/A   Overcast
3:18 PM 57.2 °F - 51.8 °F 82% 30.36 in 10.0 mi North 19.6 mph 27.6 mph N/A   Overcast
3:31 PM 57.2 °F - 48.2 °F 72% 30.37 in 10.0 mi NNE 17.3 mph 28.8 mph N/A   Overcast
3:43 PM 57.2 °F - 48.2 °F 72% 30.36 in 10.0 mi NNE 19.6 mph 28.8 mph N/A   Overcast
3:53 PM 57.9 °F - 48.0 °F 70% 30.39 in 10.0 mi NNE 20.7 mph 27.6 mph N/A   Overcast
4:16 PM 57.2 °F - 46.4 °F 67% 30.38 in 10.0 mi NNE 18.4 mph 25.3 mph N/A   Scattered Clouds
4:53 PM 55.9 °F - 46.0 °F 69% 30.41 in 10.0 mi NNE 15.0 mph 24.2 mph N/A   Partly Cloudy
5:53 PM 54.0 °F - 43.0 °F 66% 30.45 in 10.0 mi NNE 23.0 mph 29.9 mph N/A   Partly Cloudy
6:53 PM 51.1 °F - 41.0 °F 68% 30.48 in 10.0 mi NNE 16.1 mph 25.3 mph N/A   Clear
7:53 PM 48.9 °F - 39.0 °F 69% 30.51 in 10.0 mi NNE 19.6 mph 26.5 mph N/A   Clear
8:53 PM 46.9 °F - 32.0 °F 56% 30.54 in 10.0 mi NNE 18.4 mph 31.1 mph N/A   Clear
9:53 PM 45.0 °F 37.4 °F 30.9 °F 58% 30.56 in 10.0 mi NNE 18.4 mph 27.6 mph N/A   Clear
10:53 PM 43.0 °F 35.7 °F 30.0 °F 60% 30.57 in 10.0 mi NNE 15.0 mph 27.6 mph N/A   Clear
11:53 PM 41.0 °F 33.1 °F 28.9 °F 62% 30.57 in 10.0 mi NNE 15.0 mph 24.2 mph N/A   Clear